Overview Statistics Trail Chart Weather Telemetry Raw packets
 

This is the latest recevied weather packets stored in our database for station/object S51UL-6. If no packets are shown the sender has not sent any weather packets the latest 10 day(s).

<< 29 30 31 32 33 34 35 >>
Time Temp. Humidity Pressure Rain* Wind** Luminosity Snow
1788437765 33.89° C 38% 1020.2 hPa 1.02 mm - - -
1788437463 34.44° C 38% 1020.2 hPa 1.02 mm - - -
1788436864 35° C 39% 1020.5 hPa 1.02 mm - - -
1788436564 35° C 40% 1020.2 hPa 1.02 mm - - -
1788436264 35° C 39% 1020.4 hPa 1.52 mm - - -
1788435964 35° C 40% 1020.3 hPa 1.52 mm - - -
1788435664 35.56° C 39% 1020.3 hPa 1.52 mm - - -
1788435364 35.56° C 39% 1020.2 hPa 1.52 mm - - -
1788435064 35.56° C 41% 1020.3 hPa 1.52 mm - - -
1788434765 35° C 42% 1020.4 hPa 1.52 mm - - -
1788434464 34.44° C 44% 1020.5 hPa 1.02 mm - - -
1788434164 33.33° C 43% 1020.5 hPa 1.02 mm - - -
1788433865 33.33° C 44% 1020.6 hPa 1.02 mm - - -
1788433264 33.33° C 44% 1020.8 hPa 1.52 mm - - -
1788432965 32.78° C 45% 1021 hPa 1.52 mm - - -
1788432665 32.78° C 44% 1020.9 hPa 1.02 mm - - -
1788432364 33.33° C 44% 1021 hPa 1.02 mm - - -
1788432065 32.22° C 47% 1021.1 hPa 1.02 mm - - -
1788431765 31.67° C 48% 1021 hPa 1.02 mm - - -
1788431465 31.11° C 51% 1021 hPa 1.02 mm - - -
1788431165 30° C 51% 1021.2 hPa 1.52 mm - - -
1788430865 29.44° C 50% 1021.2 hPa 1.52 mm - - -
1788430565 29.44° C 50% 1021.3 hPa 3.05 mm - - -
1788430265 29.44° C 52% 1021.3 hPa 3.05 mm - - -
1788429665 28.33° C 56% 1021.5 hPa 3.05 mm - - -

* Rain latest hour (hover to see other rain measurements)
** Current wind speed in m/s (hover to see current wind gust speed)